STARLINK-1153 (45080 NORAD) Tracking and Keplerian Element Data

This shows tracking and keplerian element data for the satellite.

Feedback or suggestion? Click here.




ElementValue
Catalog45080
NameSTARLINK-1153
Epoch Orbit919
Epoch Day87.91667824
Epoch Year2020
RAAN306.3872
Inclination53.0001
Eccentricity0.0002873
Argument of Perigee318.3809
Mean Anonmoly59.1187
Mean Motion15.62775921
Decay Rate3.25E-05
L11 45080U 20006AN 20087.91667824 .00003250 00000-0 41291-4 0 9996
L22 45080 53.0001 306.3872 0002873 318.3809 59.1187 15.62775921 9194

Live tracking and technical data element details for STARLINK-1153 (NORAD 45080). STARLINK-1153 can be tracked NOW for your location showing map with azimuth and elevation plus other details from your city location.

Track the satellite on the map from your city or location and see movement details for azimuth, elevation, latitude, longitude, range, height, and movement on the map or in text.







IsCatalogInMostPopularTable: catalog: 45080, numindb: 11
Update: records affected: 1



GetName: 45080 STARLINK-1153

Hit Count: updated at: Sat, 28 Mar 2020 20:42:31 GMT